Location: *
(2.5500°S, 65.9667°W)
Time: 05:57:55
(UTC+00:00)

Explorer 7 - Pass Details

Date: 21 April 2024
Orbit: 467 x 625 km, 50.3° (Epoch: 26 May)

Event Time Altitude Azimuth Distance (km) Brightness Sun altitude
Rises 12:56:18 0° 252° (WSW) 2,737 9.9 36.7°
Reaches altitude 10° 12:59:38 10° 280° (W) 1,878 9.2 37.5°
Maximum altitude 13:01:38 13° 308° (NW) 1,707 9.2 38.0°
Drops below altitude 10° 13:03:41 10° 336° (NNW) 1,917 9.6 38.5°
Sets 13:07:11 0° 4° (N) 2,847 10.7 39.3°
